Flag for United Kingdom Weather past 2 weeks in Liverpool, England, United Kingdom

Now
55 °F

Scattered showers. Broken clouds.


Feels Like: 51 °F
Forecast: 51 / 56 °F
Wind: 20 mph from Southwest

Location: Liverpool Airport

Current Time: Dec 18, 2014 at 10:32:07 AM

Latest Report: Dec 18, 2014 at 9:50 AM


Visibility: N/A

Pressure: 29.62 "Hg

Humidity: 82%

Dew point: 50 °F

Location of LiverpoolLocation

Historic Weather in Liverpool — Graph

°F

Liverpool temperature yesterday

Maximum temperature yesterday: 54 °F (at 12:50 PM)
Minimum temperature yesterday: 46 °F (at 12:20 AM)
Average temperature yesterday: 52 °F

Past Weeks' High & Low Weather Summary

 TemperatureHumidityPressure
High55 °F (Dec 18, 4:20 AM)100% (Dec 6, 5:50 AM)30.36 "Hg (Dec 6, 5:50 AM)
Low34 °F (Dec 6, 2:20 AM)62% (Dec 10, 2:20 PM)29.15 "Hg (Dec 12, 3:50 AM)
Average44 °F84%29.87 "Hg
* Reported Dec 3 9:50 AM — Dec 18 9:20 AM, Liverpool, Weather by CustomWeather, © 2014

Note: Actual official high and low records may vary slightly from our data, if they occured in-between our weather recording intervals... More about our weather records

Advertising

Liverpool weather history for previous 24 hours

 ConditionsComfort  
Time TempWeatherWind HumidityBarometerVisibility
9:20 AM
Dec 18
55 °FLight rain. Broken clouds.23 mph82%29.62 "HgN/A
8:50 AM54 °FLight rain. Broken clouds.18 mph88%29.62 "HgN/A
8:20 AM54 °FLight rain. Passing clouds.17 mph88%29.62 "HgN/A
7:50 AM54 °FLight rain. Passing clouds.16 mph88%29.62 "HgN/A
7:20 AM54 °FLight rain. Passing clouds.18 mph88%29.62 "HgN/A
6:50 AM55 °FPassing clouds.20 mph82%29.62 "HgN/A
6:20 AM55 °FPassing clouds.17 mph82%29.62 "HgN/A
5:50 AM55 °FPassing clouds.14 mph82%29.62 "HgN/A
5:20 AM55 °FPassing clouds.13 mph82%29.62 "HgN/A
4:50 AM54 °FPassing clouds.12 mph88%29.65 "HgN/A
4:20 AM55 °FPassing clouds.14 mph82%29.62 "HgN/A
3:20 AM54 °FPassing clouds.10 mph88%29.65 "HgN/A
2:50 AM52 °FPassing clouds.9 mph94%29.65 "HgN/A
2:20 AM54 °FPassing clouds.9 mph88%29.65 "HgN/A
1:50 AM54 °FPassing clouds.9 mph88%29.65 "HgN/A
1:20 AM52 °FPassing clouds.9 mph88%29.65 "HgN/A
12:50 AM54 °FPassing clouds.8 mph88%29.65 "HgN/A
12:20 AM54 °FPassing clouds.8 mph88%29.68 "HgN/A
11:50 PM
Dec 17
52 °FPassing clouds.8 mph88%29.65 "HgN/A
11:20 PM54 °FPassing clouds.8 mph88%29.65 "HgN/A
10:20 PM54 °FPassing clouds.8 mph88%29.65 "HgN/A
9:50 PM52 °FPassing clouds.9 mph88%29.65 "HgN/A
9:20 PM54 °FPassing clouds.9 mph88%29.68 "HgN/A
8:50 PM54 °FPassing clouds.7 mph88%29.68 "HgN/A
8:20 PM52 °FPassing clouds.7 mph94%29.68 "HgN/A
7:50 PM52 °FScattered showers. Passing clouds.5 mph94%29.68 "HgN/A
7:20 PM52 °FPassing clouds.9 mph94%29.68 "HgN/A
6:50 PM52 °FPassing clouds.6 mph94%29.65 "HgN/A
6:20 PM52 °FPassing clouds.5 mph94%29.65 "HgN/A
5:50 PM50 °FSprinkles. Partly cloudy.6 mph100%29.65 "Hg4 mi
5:20 PM52 °FSprinkles. Passing clouds.5 mph94%29.65 "Hg4 mi
4:50 PM52 °FSprinkles. Partly cloudy.6 mph94%29.65 "Hg4 mi
4:20 PM52 °FSprinkles. Passing clouds.6 mph94%29.65 "Hg3 mi
3:50 PM54 °FScattered showers. Partly sunny.5 mph88%29.65 "HgN/A
3:20 PM54 °FPartly sunny.7 mph88%29.65 "HgN/A
2:50 PM54 °FPartly sunny.15 mph88%29.65 "HgN/A
2:20 PM54 °FPartly sunny.14 mph88%29.62 "HgN/A
1:50 PM54 °FPartly sunny.12 mph88%29.62 "HgN/A
1:20 PM54 °FPartly sunny.15 mph88%29.62 "HgN/A
12:50 PM54 °FPartly sunny.20 mph88%29.65 "HgN/A
12:20 PM52 °FPartly sunny.17 mph94%29.65 "HgN/A
11:50 AM52 °FScattered showers. Partly sunny.18 mph94%29.65 "HgN/A
11:20 AM52 °FScattered showers. Partly sunny.18 mph94%29.65 "HgN/A
10:50 AM52 °FScattered showers. Partly sunny.20 mph94%29.65 "HgN/A
10:20 AM52 °FSleet. Partly sunny.24 mph94%29.62 "HgN/A
Weather by CustomWeather, © 2014

See weather overviewHow to use our weather pages